Terug naar catalogus

DELTA 1 DEB

ActiefSSO
NORAD 21465·DEBRIS·🇺🇸 United States

Gelanceerd Jun 12, 1975 vanaf Vandenberg Space Force Base

Loading…

Volgende Passages (komende 24 uur)

TLE

VersSource: Space-Track

Epoch: Sep 14, 2026, 14:14 UTC

1 21465U 75052EZ  26257.59339882  .00000140  00000-0  28883-3 0  9993
2 21465  99.6099 119.4831 0067246 222.6823 166.0891 13.48888354737144

Volg DELTA 1 DEB in realtime met AllMySat

Download on the App Store